Location: Peterborough
(44.3091°N, 78.3197°W)
Time: 18:13:35
(UTC-04:00)

A-11 Canister half - Pass Details

Date: 28 March 2023
Orbit: 1526 x 1682 km, 47.3° (Epoch: 05 June)

Event Time Altitude Azimuth Distance (km) Brightness Sun altitude
Rises 21:37:13 0° 291° (WNW) 4,880 13.1 -21.6°
Reaches altitude 10° 21:40:23 10° 290° (WNW) 3,873 12.2 -22.1°
Maximum altitude 21:50:14 78° 207° (SSW) 1,628 9.0 -23.6°
Enters shadow 21:54:27 39° 129° (SE) 2,208 9.3 -24.3°
